Regional Weather Roundup
Issued by NWS

Home | Current Version | Previous Version | Text Only | Print | Product List | Glossary Off
Versions: 1 2 3 4 5 6 7 8 9 10 11 12 13 14 15 16 17 18 19 20 21 22 23 24 25 26 27 28 29 30 31 32 33 34 35 36 37 38 39 40 41 42

000
ASUS43 KDMX 270807
RWRIA

WEATHER ROUNDUP FOR IOWA
NATIONAL WEATHER SERVICE DES MOINES IA
200 AM CST SAT DEC 27 2014

NOTE: "FAIR" INDICATES FEW OR NO CLOUDS BELOW 12,000 FEET WITH NO
SIGNIFICANT WEATHER AND/OR OBSTRUCTIONS TO VISIBILITY.

* - THESE STATIONS ARE NOT NWS STATIONS...THUS NOT UNDER NWS
QUALITY CONTROL.  THEY ALSO DO NOT REPORT WEATHER SUCH
AS PRECIPITATION OR FOG.

IAZ001>003-012>014-020>022-031>034-043>046-270900-
   NORTHWEST IOWA

CITY           SKY/WX    TMP DP  RH WIND       PRES   REMARKS
CARROLL *      LGT RAIN  28  28 100 NW16      29.99R WCI  17
CHEROKEE *     LGT SNOW  25  25 100 N10       30.03S WCI  15
DENISON *      FLURRIES  27  27 100 NW10G17   30.01R WCI  17
LE MARS *      LGT SNOW  25  23  93 NW12      30.08S WCI  14
ORANGE CITY *  LGT SNOW  25  21  86 N10       30.05S VSB 1   WCI  15
SHELDON *      LGT SNOW  23  23 100 N14       30.04R WCI  11
SIOUX CITY     LGT SNOW  25  22  88 NW16      30.07S FOG     WCI  12
SPENCER        LGT SNOW  26  22  84 N15       30.02R VSB 1   WCI  14
STORM LAKE *   LGT SNOW  25  25 100 N14       30.00S WCI  13
$$

IAZ055>058-069>071-079>083-090>094-270900-
   SOUTHWEST IOWA

CITY           SKY/WX    TMP DP  RH WIND       PRES   REMARKS
ATLANTIC *     CLOUDY    32  32 100 NW10      30.00R WCI  24
AUDUBON *      PTCLDY    30  27  86 NW8       30.00R WCI  23
CLARINDA *     CLOUDY    34  32  93 W8        30.04R WCI  27
COUNCIL BLFS * CLOUDY    28  28 100 NW13      30.03R WCI  18
CRESTON *      FOG       32  32 100 W12       29.99R VSB 1/4 WCI  23
HARLAN  *      LGT RAIN  28  30 100 NW15      30.05R WCI  17
LAMONI         LGT SNOW  33  32  96 W8        29.98R FOG     WCI  26
RED OAK *      CLOUDY    32  32 100 NW13      30.02S WCI  22
SHENANDOAH *   CLOUDY    32  32 100 NW13      30.05R FOG     WCI  22
$$

IAZ047>049-059>061-072>074-084-270900-
   CENTRAL IOWA

CITY           SKY/WX    TMP DP  RH WIND       PRES   REMARKS
AMES           LGT SNOW  32  31  96 W3        29.93S FOG
ANKENY *       LGT SNOW  34  34 100 W5        29.95R VSB 3/4 WCI  30
CHARITON *     LGT RAIN  34  34 100 W7        29.96R WCI  28
DES MOINES     LGT SNOW  34  32  92 W7        29.96R FOG     WCI  28
GRINNELL*      RAIN      34  34 100 W5        29.93R WCI  30
KNOXVILLE *    CLOUDY    34  34 100 W6        29.93R FOG     WCI  29
MARSHALLTOWN   LGT RAIN  33  33 100 CALM      29.90F FOG
PELLA *        DRIZZLE   34  34 100 W5        29.95R WCI  30
PERRY *        LGT SNOW  32  32 100 NW7       29.96R WCI  26
$$

IAZ004>006-015-016-023>025-035-036-270900-
   NORTH CENTRAL IOWA

CITY           SKY/WX    TMP DP  RH WIND       PRES   REMARKS
ALGONA *       MIX PCPN  28  28 100 N15G22    29.96F WCI  17
CLARION *      LGT SNOW  30  30 100 N8        29.92F WCI  23
ESTHERVILLE    LGT SNOW  25  23  92 N17       29.99R FOG     WCI  12
FORT DODGE *   CLOUDY    30  27  86 NW7       29.96R WCI  23
MASON CITY     LGT SNOW  30  28  92 N12       29.92F FOG     WCI  20
FOREST CITY *  LGT SNOW  30  28  93 N9        29.92F WCI  22
IOWA FALLS *   LGT SNOW  32  32 100 CALM      29.90F
$$

IAZ007>011-017>019-026>030-037>042-050>054-066-270900-
   NORTHEAST IOWA

CITY           SKY/WX    TMP DP  RH WIND       PRES   REMARKS
CEDAR RAPIDS   LGT RAIN  38  38 100 NW6       29.90F WCI  33
CHARLES CITY * CLOUDY    32  32 100 NE6       29.91F FOG     WCI  26
CLINTON *      MOCLDY    45  41  87 S7        29.96S
DECORAH *      CLOUDY    32  32 100 CALM      29.91S FOG
DUBUQUE        CLOUDY    39  38  96 E5        29.92F
MONTICELLO *   CLOUDY    39  39 100 CALM      29.90F
OELWEIN *      CLOUDY    34  34 100 NE5       29.90F FOG     WCI  30
WATERLOO       CLOUDY    34  34 100 CALM      29.91F FOG
$$

IAZ064-065-067-068-078-270900-
   EAST CENTRAL IOWA

CITY           SKY/WX    TMP DP  RH WIND       PRES   REMARKS
DAVENPORT      CLOUDY    47  42  83 S12       29.93S
IOWA CITY      CLOUDY    40  40 100 CALM      29.93S
MT. PLEASANT * DRIZZLE   41  41 100 SE5       29.93F
MUSCATINE *    CLOUDY    45  39  81 SE3       29.93F
QUAD CITIES    CLOUDY    49  44  83 S8        29.93S
$$

IAZ062-063-075>077-085>089-095>099-270900-
   SOUTHEAST IOWA

CITY           SKY/WX    TMP DP  RH WIND       PRES   REMARKS
BURLINGTON     CLOUDY    51  47  86 S14       29.93F
FAIRFIELD *    CLOUDY    39  39 100 CALM      29.92F
FORT MADISON *   N/A     52  48  87 S10       29.94F
KEOKUK *       CLOUDY    52  48  87 S13       29.93S
OSKALOOSA *    CLOUDY    36  34  93 CALM      29.94S
CENTERVILLE *  CLOUDY    37  37 100 W9        29.95R WCI  31
OTTUMWA        CLOUDY    37  35  92 CALM      29.93F
WASHINGTON *   CLOUDY    41  41 100 CALM      29.91F
$$

ABBREVIATIONS USED IN REMARKS
   TC - TEMPERATURES IN CELSIUS
  WCI - WIND CHILL INDEX
   HX - HEAT INDEX
  VSB - VISIBILITY
$$



USA.gov is the U.S. government's official web portal to all federal, state and local government web resources and services.